Location: Mouss�
(47.9236°N, 1.2701°W)
Time: 07:44:49
(UTC+00:00)

Meteor 1-19 Rocket - Pass Details

Date: 03 March 2021
Orbit: 807 x 928 km, 81.2° (Epoch: 13 April)

Event Time Altitude Azimuth Distance (km) Brightness Sun altitude
Rises 18:40:24 0° 349° (NNW) 3,571 7.6 -8.8°
Reaches altitude 10° 18:42:55 10° 350° (N) 2,613 6.9 -9.2°
Maximum altitude 18:48:55 79° 78° (ENE) 917 4.3 -10.2°
Drops below altitude 10° 18:54:41 10° 165° (SSE) 2,521 6.5 -11.2°
Sets 18:57:04 0° 167° (SSE) 3,437 7.2 -11.6°
